Jackson, NH (03846)

9:41 AM EST on February 20, 2017 (GMT -0500)
Dana Place | | Change Station

Elev 1190 ft 44.20 °N, 71.23 °W | Updated 44 seconds ago

Partly Cloudy
Partly Cloudy
32.2 °F
Feels Like 32 °F
N
1.0
Wind Variable Wind from SW
Gusts 1.0 mph

Today
High -- | Low -- °F
--% Chance of Precip.
Yesterday
High -- | Low -- °F
Precip. -- in
Pressure 30.14 in
Visibility 10.0 miles
Clouds Few 4300 ft
Windchill 32 °F
Dew Point 18 °F
Humidity 56%
Rainfall 0.00 in
Snow Depth Not available.
6:36 AM 5:21 PM
Waning Crescent, 33% visible
METAR KIZG 201354Z AUTO VRB06KT 10SM FEW043 01/M09 A3013 RMK AO2 SLP207 T00061089
Pressure 30.14 in
Visibility 10.0 miles
Clouds Few 4300 ft
Windchill 32 °F
Dew Point 18 °F
Humidity 56%
Rainfall 0.00 in
Snow Depth Not available.
6:36 AM 5:21 PM
Waning Crescent, 33% visible
METAR KIZG 201354Z AUTO VRB06KT 10SM FEW043 01/M09 A3013 RMK AO2 SLP207 T00061089

Get Your Daily Forecast Email!

Thanks for signing up!

Be on the lookout for a verification email in your inbox.

You'll start receiving the daily forecast at 8 AM.

×

10-Day Weather Forecast

Almanac

Astronomy

Feb. 20, 2017 Rise Set
Actual Time
Civil Twilight
Nautical Twilight
Astronomical Twilight
Moon
Length of Visible Light
Length of Day
Tomorrow will be .
, % of the Moon is Illuminated

Today's Extremes

State Highs State Lows

Community

WunderPhotos

Upload Photos

1,962,540 photos uploaded!

WunderBlog® & News

Nearby

Air Quality

  Air Quality AQ Index Pollutant
Not available.

Snow Depth

Station Depth Elevation

Earthquake Activity

City Distance Mag. Time & Date
Minimum magnitude displayed is 2.5.

Coastal Water Temperatures

Place Temperature

Stations

Nearby Weather Stations

Station Location Temp. Windchill Dew Point Humidity Wind Precip. Elev Updated Type
                   

Watches & Warnings

Small Craft for Winds Advisory
Issued: 2:51 AM EST Feb. 20, 2017 – National Weather Service

... Small Craft Advisory for winds remains in effect from 6 am
this morning to 5 PM EST this afternoon...

* winds... north 10 to 20 kt with gusts up to 30 kt.

Precautionary/preparedness actions...

A Small Craft Advisory for wind means that wind speeds of 25 to
33 knots are expected. Inexperienced mariners... especially those
operating smaller vessels should avoid navigating in these
conditions.